Location: La Brionne
(46.1728°N, 1.7849°E)
Time: 22:56:46
(UTC+00:00)

Cosmos 2322 - Pass Details

Date: 16 June 2021
Orbit: 839 x 856 km, 71.0° (Epoch: 02 August)

Event Time Altitude Azimuth Distance (km) Brightness Sun altitude
Exits shadow 22:03:09 17° 193° (SSW) 2,025 5.2 -16.1°
Maximum altitude 22:07:35 71° 113° (ESE) 890 3.6 -16.4°
Drops below altitude 10° 22:13:13 10° 30° (NNE) 2,467 6.6 -16.8°
Sets 22:15:41 0° 29° (NNE) 3,408 7.4 -17.0°
